Year,Month,Day,Hour,Minute,Value (Times are PST for temperature in C)
2016,08,10,00,00,16.70
2016,08,10,00,01,16.70
2016,08,10,00,02,16.70
2016,08,10,00,03,16.70
2016,08,10,00,04,16.70
2016,08,10,00,05,16.70
2016,08,10,00,06,16.70
2016,08,10,00,07,16.70
2016,08,10,00,08,16.70
2016,08,10,00,09,16.70
2016,08,10,00,10,16.70
2016,08,10,00,11,16.70
2016,08,10,00,12,16.70
2016,08,10,00,13,16.70
2016,08,10,00,14,16.70
2016,08,10,00,15,16.70
2016,08,10,00,16,16.70
2016,08,10,00,17,16.70
2016,08,10,00,18,16.70
2016,08,10,00,19,16.60
2016,08,10,00,20,16.60
2016,08,10,00,21,16.60
2016,08,10,00,22,16.60
2016,08,10,00,23,16.60
2016,08,10,00,24,16.60
2016,08,10,00,25,16.60
2016,08,10,00,26,16.60
2016,08,10,00,27,16.60
2016,08,10,00,28,16.60
2016,08,10,00,29,16.60
2016,08,10,00,30,16.60
2016,08,10,00,31,16.60
2016,08,10,00,32,16.60
2016,08,10,00,33,16.60
2016,08,10,00,34,16.60
2016,08,10,00,35,16.50
2016,08,10,00,36,16.50
2016,08,10,00,37,16.50
2016,08,10,00,38,16.60
2016,08,10,00,39,16.60
2016,08,10,00,40,16.60
2016,08,10,00,41,16.60
2016,08,10,00,42,16.50
2016,08,10,00,43,16.50
2016,08,10,00,44,16.50
2016,08,10,00,45,16.50
2016,08,10,00,46,16.50
2016,08,10,00,47,16.50
2016,08,10,00,48,16.50
2016,08,10,00,49,16.50
2016,08,10,00,50,16.50
2016,08,10,00,51,16.50
2016,08,10,00,52,16.40
2016,08,10,00,53,16.40
2016,08,10,00,54,16.40
2016,08,10,00,55,16.40
2016,08,10,00,56,16.40
2016,08,10,00,57,16.40
2016,08,10,00,58,16.40
2016,08,10,00,59,16.40
2016,08,10,01,00,16.40
2016,08,10,01,01,16.40
2016,08,10,01,02,16.40
2016,08,10,01,03,16.40
2016,08,10,01,04,16.40
2016,08,10,01,05,16.40
2016,08,10,01,06,16.40
2016,08,10,01,07,16.40
2016,08,10,01,08,16.40
2016,08,10,01,09,16.40
2016,08,10,01,10,16.40
2016,08,10,01,11,16.40
2016,08,10,01,12,16.40
2016,08,10,01,13,16.40
2016,08,10,01,14,16.40
2016,08,10,01,15,16.40
2016,08,10,01,16,16.40
2016,08,10,01,17,16.40
2016,08,10,01,18,16.40
2016,08,10,01,19,16.40
2016,08,10,01,20,16.40
2016,08,10,01,21,16.40
2016,08,10,01,22,16.40
2016,08,10,01,23,16.40
2016,08,10,01,24,16.40
2016,08,10,01,25,16.30
2016,08,10,01,26,16.40
2016,08,10,01,27,16.40
2016,08,10,01,28,16.40
2016,08,10,01,29,16.40
2016,08,10,01,30,16.40
2016,08,10,01,31,16.40
2016,08,10,01,32,16.40
2016,08,10,01,33,16.30
2016,08,10,01,34,16.30
2016,08,10,01,35,16.30
2016,08,10,01,36,16.30
2016,08,10,01,37,16.30
2016,08,10,01,38,16.30
2016,08,10,01,39,16.30
2016,08,10,01,40,16.30
2016,08,10,01,41,16.30
2016,08,10,01,42,16.30
2016,08,10,01,43,16.30
2016,08,10,01,44,16.30
2016,08,10,01,45,16.20
2016,08,10,01,46,16.20
2016,08,10,01,47,16.20
2016,08,10,01,48,16.20
2016,08,10,01,49,16.20
2016,08,10,01,50,16.20
2016,08,10,01,51,16.20
2016,08,10,01,52,16.30
2016,08,10,01,53,16.30
2016,08,10,01,54,16.20
2016,08,10,01,55,16.30
2016,08,10,01,56,16.30
2016,08,10,01,57,16.30
2016,08,10,01,58,16.30
2016,08,10,01,59,16.20
2016,08,10,02,00,16.20
2016,08,10,02,01,16.20
2016,08,10,02,02,16.20
2016,08,10,02,03,16.30
2016,08,10,02,04,16.30
2016,08,10,02,05,16.30
2016,08,10,02,06,16.30
2016,08,10,02,07,16.30
2016,08,10,02,08,16.30
2016,08,10,02,09,16.30
2016,08,10,02,10,16.30
2016,08,10,02,11,16.30
2016,08,10,02,12,16.30
2016,08,10,02,13,16.30
2016,08,10,02,14,16.30
2016,08,10,02,15,16.30
2016,08,10,02,16,16.30
2016,08,10,02,17,16.30
2016,08,10,02,18,16.20
2016,08,10,02,19,16.20
2016,08,10,02,20,16.20
2016,08,10,02,21,16.20
2016,08,10,02,22,16.20
2016,08,10,02,23,16.20
2016,08,10,02,24,16.20
2016,08,10,02,25,16.20
2016,08,10,02,26,16.20
2016,08,10,02,27,16.20
2016,08,10,02,28,16.20
2016,08,10,02,29,16.20
2016,08,10,02,30,16.20
2016,08,10,02,31,16.20
2016,08,10,02,32,16.20
2016,08,10,02,33,16.20
2016,08,10,02,34,16.20
2016,08,10,02,35,16.20
2016,08,10,02,36,16.20
2016,08,10,02,37,16.20
2016,08,10,02,38,16.20
2016,08,10,02,39,16.20
2016,08,10,02,40,16.20
2016,08,10,02,41,16.20
2016,08,10,02,42,16.20
2016,08,10,02,43,16.10
2016,08,10,02,44,16.10
2016,08,10,02,45,16.10
2016,08,10,02,46,16.10
2016,08,10,02,47,16.10
2016,08,10,02,48,16.10
2016,08,10,02,49,16.10
2016,08,10,02,50,16.10
2016,08,10,02,51,16.10
2016,08,10,02,52,16.10
2016,08,10,02,53,16.10
2016,08,10,02,54,16.00
2016,08,10,02,55,16.00
2016,08,10,02,56,16.00
2016,08,10,02,57,16.00
2016,08,10,02,58,16.00
2016,08,10,02,59,16.00
2016,08,10,03,00,16.00
2016,08,10,03,01,16.00
2016,08,10,03,02,15.90
2016,08,10,03,03,15.90
2016,08,10,03,05,16.00
2016,08,10,03,06,15.90
2016,08,10,03,07,15.90
2016,08,10,03,08,15.90
2016,08,10,03,09,15.90
2016,08,10,03,10,15.90
2016,08,10,03,11,15.90
2016,08,10,03,12,15.90
2016,08,10,03,13,16.00
2016,08,10,03,14,15.90
2016,08,10,03,15,15.90
2016,08,10,03,16,15.90
2016,08,10,03,17,15.90
2016,08,10,03,18,15.90
2016,08,10,03,19,15.90
2016,08,10,03,20,15.90
2016,08,10,03,21,15.90
2016,08,10,03,22,15.90
2016,08,10,03,23,15.90
2016,08,10,03,24,15.90
2016,08,10,03,25,15.90
2016,08,10,03,26,15.90
2016,08,10,03,27,15.90
2016,08,10,03,28,15.90
2016,08,10,03,29,15.90
2016,08,10,03,30,15.90
2016,08,10,03,31,15.90
2016,08,10,03,32,15.90
2016,08,10,03,33,15.90
2016,08,10,03,34,15.90
2016,08,10,03,35,15.90
2016,08,10,03,36,15.90
2016,08,10,03,37,15.90
2016,08,10,03,38,15.90
2016,08,10,03,39,15.90
2016,08,10,03,40,15.90
2016,08,10,03,41,15.90
2016,08,10,03,42,15.90
2016,08,10,03,43,15.90
2016,08,10,03,44,15.90
2016,08,10,03,45,15.90
2016,08,10,03,46,15.90
2016,08,10,03,47,15.90
2016,08,10,03,48,15.90
2016,08,10,03,49,15.90
2016,08,10,03,50,15.90
2016,08,10,03,51,15.90
2016,08,10,03,52,15.90
2016,08,10,03,53,15.90
2016,08,10,03,54,15.90
2016,08,10,03,55,15.90
2016,08,10,03,56,15.90
2016,08,10,03,57,15.90
2016,08,10,03,58,15.90
2016,08,10,03,59,15.90
2016,08,10,04,00,15.90
2016,08,10,04,01,15.90
2016,08,10,04,02,15.90
2016,08,10,04,03,15.90
2016,08,10,04,04,15.90
2016,08,10,04,05,15.90
2016,08,10,04,06,15.90
2016,08,10,04,07,15.90
2016,08,10,04,08,15.90
2016,08,10,04,09,15.90
2016,08,10,04,10,15.90
2016,08,10,04,11,15.90
2016,08,10,04,12,15.90
2016,08,10,04,13,15.90
2016,08,10,04,14,15.90
2016,08,10,04,15,15.90
2016,08,10,04,16,15.90
2016,08,10,04,17,15.90
2016,08,10,04,18,15.90
2016,08,10,04,19,15.90
2016,08,10,04,20,15.90
2016,08,10,04,21,15.90
2016,08,10,04,22,15.90
2016,08,10,04,23,15.90
2016,08,10,04,24,15.90
2016,08,10,04,25,15.90
2016,08,10,04,26,15.90
2016,08,10,04,27,15.90
2016,08,10,04,28,15.90
2016,08,10,04,29,15.90
2016,08,10,04,30,15.90
2016,08,10,04,31,15.90
2016,08,10,04,32,15.90
2016,08,10,04,33,15.90
2016,08,10,04,34,15.90
2016,08,10,04,35,15.90
2016,08,10,04,36,15.90
2016,08,10,04,37,15.90
2016,08,10,04,38,15.90
2016,08,10,04,39,15.80
2016,08,10,04,40,15.80
2016,08,10,04,41,15.80
2016,08,10,04,42,15.80
2016,08,10,04,43,15.80
2016,08,10,04,44,15.80
2016,08,10,04,45,15.80
2016,08,10,04,46,15.80
2016,08,10,04,47,15.80
2016,08,10,04,48,15.80
2016,08,10,04,49,15.80
2016,08,10,04,50,15.80
2016,08,10,04,51,15.80
2016,08,10,04,52,15.80
2016,08,10,04,53,15.80
2016,08,10,04,54,15.80
2016,08,10,04,55,15.80
2016,08,10,04,56,15.80
2016,08,10,04,57,15.80
2016,08,10,04,58,15.80
2016,08,10,04,59,15.80
2016,08,10,05,00,15.80
2016,08,10,05,01,15.80
2016,08,10,05,02,15.80
2016,08,10,05,03,15.80
2016,08,10,05,04,15.80
2016,08,10,05,05,15.80
2016,08,10,05,06,15.80
2016,08,10,05,07,15.70
2016,08,10,05,08,15.70
2016,08,10,05,09,15.70
2016,08,10,05,10,15.70
2016,08,10,05,11,15.70
2016,08,10,05,12,15.70
2016,08,10,05,13,15.70
2016,08,10,05,14,15.70
2016,08,10,05,15,15.70
2016,08,10,05,16,15.70
2016,08,10,05,17,15.70
2016,08,10,05,18,15.70
2016,08,10,05,19,15.70
2016,08,10,05,20,15.70
2016,08,10,05,21,15.70
2016,08,10,05,22,15.70
2016,08,10,05,23,15.70
2016,08,10,05,24,15.70
2016,08,10,05,25,15.70
2016,08,10,05,26,15.70
2016,08,10,05,27,15.70
2016,08,10,05,28,15.70
2016,08,10,05,29,15.70
2016,08,10,05,30,15.70
2016,08,10,05,31,15.70
2016,08,10,05,32,15.70
2016,08,10,05,33,15.60
2016,08,10,05,34,15.60
2016,08,10,05,35,15.60
2016,08,10,05,36,15.60
2016,08,10,05,37,15.60
2016,08,10,05,38,15.50
2016,08,10,05,39,15.60
2016,08,10,05,40,15.60
2016,08,10,05,41,15.60
2016,08,10,05,42,15.60
2016,08,10,05,43,15.60
2016,08,10,05,44,15.60
2016,08,10,05,45,15.50
2016,08,10,05,46,15.50
2016,08,10,05,47,15.50
2016,08,10,05,48,15.50
2016,08,10,05,49,15.50
2016,08,10,05,50,15.50
2016,08,10,05,51,15.40
2016,08,10,05,52,15.40
2016,08,10,05,53,15.40
2016,08,10,05,54,15.40
2016,08,10,05,55,15.40
2016,08,10,05,56,15.30
2016,08,10,05,57,15.30
2016,08,10,05,58,15.40
2016,08,10,05,59,15.40
2016,08,10,06,00,15.40
2016,08,10,06,01,15.30
2016,08,10,06,02,15.30
2016,08,10,06,03,15.30
2016,08,10,06,04,15.30
2016,08,10,06,05,15.30
2016,08,10,06,06,15.30
2016,08,10,06,07,15.30
2016,08,10,06,08,15.30
2016,08,10,06,09,15.30
2016,08,10,06,10,15.30
2016,08,10,06,11,15.30
2016,08,10,06,12,15.20
2016,08,10,06,13,15.20
2016,08,10,06,14,15.20
2016,08,10,06,15,15.20
2016,08,10,06,16,15.20
2016,08,10,06,17,15.20
2016,08,10,06,18,15.20
2016,08,10,06,19,15.20
2016,08,10,06,20,15.20
2016,08,10,06,21,15.20
2016,08,10,06,22,15.20
2016,08,10,06,23,15.10
2016,08,10,06,24,15.10
2016,08,10,06,25,15.10
2016,08,10,06,26,15.10
2016,08,10,06,27,15.10
2016,08,10,06,28,15.10
2016,08,10,06,29,15.10
2016,08,10,06,30,15.20
2016,08,10,06,31,15.20
2016,08,10,06,32,15.20
2016,08,10,06,33,15.20
2016,08,10,06,34,15.20
2016,08,10,06,35,15.20
2016,08,10,06,36,15.20
2016,08,10,06,37,15.20
2016,08,10,06,38,15.20
2016,08,10,06,39,15.20
2016,08,10,06,40,15.20
2016,08,10,06,41,15.30
2016,08,10,06,42,15.30
2016,08,10,06,43,15.30
2016,08,10,06,44,15.30
2016,08,10,06,45,15.30
2016,08,10,06,46,15.30
2016,08,10,06,47,15.30
2016,08,10,06,48,15.30
2016,08,10,06,49,15.30
2016,08,10,06,50,15.30
2016,08,10,06,51,15.40
2016,08,10,06,52,15.40
2016,08,10,06,53,15.40
2016,08,10,06,54,15.40
2016,08,10,06,55,15.40
2016,08,10,06,56,15.40
2016,08,10,06,57,15.50
2016,08,10,06,58,15.50
2016,08,10,06,59,15.50
2016,08,10,07,00,15.50
2016,08,10,07,01,15.60
2016,08,10,07,02,15.60
2016,08,10,07,03,15.60
2016,08,10,07,04,15.60
2016,08,10,07,05,15.60
2016,08,10,07,06,15.70
2016,08,10,07,07,15.70
2016,08,10,07,08,15.70
2016,08,10,07,09,15.70
2016,08,10,07,10,15.80
2016,08,10,07,11,15.80
2016,08,10,07,12,15.80
2016,08,10,07,13,15.80
2016,08,10,07,14,15.80
2016,08,10,07,15,15.80
2016,08,10,07,16,15.80
2016,08,10,07,17,15.90
2016,08,10,07,18,15.90
2016,08,10,07,19,15.90
2016,08,10,07,20,15.90
2016,08,10,07,21,15.90
2016,08,10,07,22,15.90
2016,08,10,07,23,16.00
2016,08,10,07,24,16.00
2016,08,10,07,25,16.10
2016,08,10,07,26,16.10
2016,08,10,07,27,16.10
2016,08,10,07,28,16.10
2016,08,10,07,29,16.10
2016,08,10,07,30,16.10
2016,08,10,07,31,16.10
2016,08,10,07,32,16.20
2016,08,10,07,33,16.20
2016,08,10,07,34,16.20
2016,08,10,07,35,16.20
2016,08,10,07,36,16.20
2016,08,10,07,37,16.20
2016,08,10,07,38,16.20
2016,08,10,07,39,16.20
2016,08,10,07,40,16.30
2016,08,10,07,41,16.30
2016,08,10,07,42,16.30
2016,08,10,07,43,16.30
2016,08,10,07,44,16.30
2016,08,10,07,45,16.30
2016,08,10,07,46,16.40
2016,08,10,07,47,16.40
2016,08,10,07,48,16.40
2016,08,10,07,49,16.40
2016,08,10,07,50,16.40
2016,08,10,07,51,16.40
2016,08,10,07,52,16.40
2016,08,10,07,53,16.40
2016,08,10,07,54,16.40
2016,08,10,07,55,16.40
2016,08,10,07,56,16.40
2016,08,10,07,57,16.40
2016,08,10,07,58,16.40
2016,08,10,07,59,16.50
2016,08,10,08,00,16.50
2016,08,10,08,01,16.50
2016,08,10,08,02,16.50
2016,08,10,08,03,16.60
2016,08,10,08,04,16.60
2016,08,10,08,05,16.60
2016,08,10,08,06,16.60
2016,08,10,08,07,16.60
2016,08,10,08,08,16.60
2016,08,10,08,09,16.60
2016,08,10,08,10,16.60
2016,08,10,08,11,16.60
2016,08,10,08,12,16.60
2016,08,10,08,13,16.70
2016,08,10,08,14,16.70
2016,08,10,08,15,16.70
2016,08,10,08,16,16.70
2016,08,10,08,17,16.70
2016,08,10,08,18,16.70
2016,08,10,08,19,16.70
2016,08,10,08,20,16.70
2016,08,10,08,21,16.70
2016,08,10,08,22,16.80
2016,08,10,08,23,16.80
2016,08,10,08,24,16.80
2016,08,10,08,25,16.80
2016,08,10,08,26,16.80
2016,08,10,08,27,16.80
2016,08,10,08,28,16.80
2016,08,10,08,29,16.80
2016,08,10,08,30,16.80
2016,08,10,08,31,16.80
2016,08,10,08,32,16.80
2016,08,10,08,33,16.80
2016,08,10,08,34,16.90
2016,08,10,08,35,16.90
2016,08,10,08,36,16.90
2016,08,10,08,37,16.90
2016,08,10,08,38,16.90
2016,08,10,08,39,17.00
2016,08,10,08,40,17.00
2016,08,10,08,41,17.00
2016,08,10,08,42,17.00
2016,08,10,08,43,17.00
2016,08,10,08,44,17.10
2016,08,10,08,45,17.10
2016,08,10,08,46,17.10
2016,08,10,08,47,17.10
2016,08,10,08,48,17.10
2016,08,10,08,49,17.10
2016,08,10,08,50,17.10
2016,08,10,08,51,17.10
2016,08,10,08,52,17.20
2016,08,10,08,53,17.20
2016,08,10,08,54,17.20
2016,08,10,08,55,17.30
2016,08,10,08,56,17.30
2016,08,10,08,57,17.30
2016,08,10,08,58,17.30
2016,08,10,08,59,17.30
2016,08,10,09,00,17.30
2016,08,10,09,01,17.40
2016,08,10,09,02,17.40
2016,08,10,09,03,17.40
2016,08,10,09,04,17.50
2016,08,10,09,05,17.50
2016,08,10,09,06,17.60
2016,08,10,09,07,17.60
2016,08,10,09,08,17.60
2016,08,10,09,09,17.60
2016,08,10,09,10,17.70
2016,08,10,09,11,17.70
2016,08,10,09,12,17.70
2016,08,10,09,13,17.70
2016,08,10,09,14,17.70
2016,08,10,09,15,17.80
2016,08,10,09,16,17.80
2016,08,10,09,17,17.80
2016,08,10,09,18,17.80
2016,08,10,09,19,17.80
2016,08,10,09,20,17.80
2016,08,10,09,21,17.90
2016,08,10,09,22,17.90
2016,08,10,09,23,17.90
2016,08,10,09,24,17.90
2016,08,10,09,25,17.90
2016,08,10,09,26,17.90
2016,08,10,09,27,17.90
2016,08,10,09,28,17.90
2016,08,10,09,29,18.00
2016,08,10,09,30,18.00
2016,08,10,09,31,18.00
2016,08,10,09,32,18.00
2016,08,10,09,33,18.10
2016,08,10,09,34,18.10
2016,08,10,09,35,18.10
2016,08,10,09,36,18.10
2016,08,10,09,37,18.10
2016,08,10,09,38,18.10
2016,08,10,09,39,18.20
2016,08,10,09,40,18.20
2016,08,10,09,41,18.20
2016,08,10,09,42,18.20
2016,08,10,09,43,18.20
2016,08,10,09,44,18.20
2016,08,10,09,45,18.20
2016,08,10,09,46,18.20
2016,08,10,09,47,18.20
2016,08,10,09,48,18.20
2016,08,10,09,49,18.10
2016,08,10,09,50,18.10
2016,08,10,09,51,18.10
2016,08,10,09,52,18.20
2016,08,10,09,53,18.20
2016,08,10,09,54,18.20
2016,08,10,09,55,18.20
2016,08,10,09,56,18.20
2016,08,10,09,57,18.20
2016,08,10,09,58,18.20
2016,08,10,09,59,18.30
2016,08,10,10,00,18.30
2016,08,10,10,01,18.20
2016,08,10,10,02,18.20
2016,08,10,10,03,18.20
2016,08,10,10,04,18.30
2016,08,10,10,05,18.30
2016,08,10,10,06,18.30
2016,08,10,10,07,18.30
2016,08,10,10,08,18.30
2016,08,10,10,09,18.40
2016,08,10,10,10,18.40
2016,08,10,10,11,18.40
2016,08,10,10,12,18.40
2016,08,10,10,13,18.40
2016,08,10,10,14,18.40
2016,08,10,10,15,18.40
2016,08,10,10,16,18.40
2016,08,10,10,17,18.40
2016,08,10,10,18,18.40
2016,08,10,10,19,18.40
2016,08,10,10,20,18.40
2016,08,10,10,21,18.40
2016,08,10,10,22,18.40
2016,08,10,10,23,18.50
2016,08,10,10,24,18.60
2016,08,10,10,25,18.60
2016,08,10,10,26,18.70
2016,08,10,10,27,18.70
2016,08,10,10,28,18.80
2016,08,10,10,29,18.80
2016,08,10,10,30,18.90
2016,08,10,10,31,18.90
2016,08,10,10,32,19.00
2016,08,10,10,33,19.00
2016,08,10,10,34,19.00
2016,08,10,10,35,19.10
2016,08,10,10,36,19.10
2016,08,10,10,37,19.10
2016,08,10,10,38,19.10
2016,08,10,10,39,19.10
2016,08,10,10,40,19.20
2016,08,10,10,41,19.20
2016,08,10,10,42,19.30
2016,08,10,10,43,19.30
2016,08,10,10,44,19.30
2016,08,10,10,45,19.30
2016,08,10,10,46,19.30
2016,08,10,10,47,19.30
2016,08,10,10,48,19.30
2016,08,10,10,49,19.30
2016,08,10,10,50,19.40
2016,08,10,10,51,19.40
2016,08,10,10,52,19.40
2016,08,10,10,53,19.50
2016,08,10,10,54,19.50
2016,08,10,10,55,19.50
2016,08,10,10,56,19.60
2016,08,10,10,57,19.60
2016,08,10,10,58,19.60
2016,08,10,10,59,19.60
2016,08,10,11,00,19.60
2016,08,10,11,01,19.60
2016,08,10,11,02,19.60
2016,08,10,11,03,19.60
2016,08,10,11,04,19.60
2016,08,10,11,05,19.70
2016,08,10,11,06,19.70
2016,08,10,11,07,19.80
2016,08,10,11,08,19.80
2016,08,10,11,09,19.90
2016,08,10,11,10,20.00
2016,08,10,11,11,20.00
2016,08,10,11,12,20.10
2016,08,10,11,13,20.10
2016,08,10,11,14,20.10
2016,08,10,11,15,20.10
2016,08,10,11,16,20.20
2016,08,10,11,17,20.20
2016,08,10,11,18,20.20
2016,08,10,11,19,20.30
2016,08,10,11,20,20.30
2016,08,10,11,21,20.30
2016,08,10,11,22,20.30
2016,08,10,11,23,20.30
2016,08,10,11,24,20.30
2016,08,10,11,25,20.30
2016,08,10,11,26,20.30
2016,08,10,11,27,20.30
2016,08,10,11,28,20.20
2016,08,10,11,29,20.20
2016,08,10,11,30,20.20
2016,08,10,11,31,20.20
2016,08,10,11,32,20.20
2016,08,10,11,33,20.20
2016,08,10,11,34,20.20
2016,08,10,11,35,20.20
2016,08,10,11,36,20.20
2016,08,10,11,37,20.10
2016,08,10,11,38,20.10
2016,08,10,11,39,20.20
2016,08,10,11,40,20.30
2016,08,10,11,41,20.30
2016,08,10,11,42,20.40
2016,08,10,11,43,20.40
2016,08,10,11,44,20.50
2016,08,10,11,45,20.60
2016,08,10,11,46,20.70
2016,08,10,11,47,20.80
2016,08,10,11,48,20.80
2016,08,10,11,49,20.90
2016,08,10,11,50,21.00
2016,08,10,11,51,21.10
2016,08,10,11,52,21.20
2016,08,10,11,53,21.30
2016,08,10,11,54,21.30
2016,08,10,11,55,21.30
2016,08,10,11,56,21.30
2016,08,10,11,57,21.30
2016,08,10,11,58,21.40
2016,08,10,11,59,21.40
2016,08,10,12,00,21.40
2016,08,10,12,01,21.50
2016,08,10,12,02,21.60
2016,08,10,12,03,21.70
2016,08,10,12,04,21.80
2016,08,10,12,05,21.90
2016,08,10,12,06,22.00
2016,08,10,12,07,22.00
2016,08,10,12,08,21.90
2016,08,10,12,09,21.80
2016,08,10,12,10,21.80
2016,08,10,12,11,21.70
2016,08,10,12,12,21.70
2016,08,10,12,13,21.70
2016,08,10,12,14,21.70
2016,08,10,12,15,21.80
2016,08,10,12,16,21.80
2016,08,10,12,17,21.80
2016,08,10,12,18,21.80
2016,08,10,12,19,21.80
2016,08,10,12,20,21.80
2016,08,10,12,21,21.80
2016,08,10,12,22,21.80
2016,08,10,12,23,21.80
2016,08,10,12,24,21.80
2016,08,10,12,25,21.80
2016,08,10,12,26,21.70
2016,08,10,12,27,21.60
2016,08,10,12,28,21.50
2016,08,10,12,29,21.40
2016,08,10,12,30,21.40
2016,08,10,12,31,21.40
2016,08,10,12,32,21.40
2016,08,10,12,33,21.40
2016,08,10,12,34,21.40
2016,08,10,12,35,21.40
2016,08,10,12,36,21.40
2016,08,10,12,37,21.50
2016,08,10,12,38,21.50
2016,08,10,12,39,21.50
2016,08,10,12,40,21.60
2016,08,10,12,41,21.60
2016,08,10,12,42,21.60
2016,08,10,12,43,21.70
2016,08,10,12,44,21.70
2016,08,10,12,45,21.70
2016,08,10,12,46,21.70
2016,08,10,12,47,21.70
2016,08,10,12,48,21.80
2016,08,10,12,49,21.90
2016,08,10,12,50,21.90
2016,08,10,12,51,22.00
2016,08,10,12,52,22.00
2016,08,10,12,53,22.10
2016,08,10,12,54,22.10
2016,08,10,12,55,22.10
2016,08,10,12,56,22.10
2016,08,10,12,57,22.10
2016,08,10,12,58,22.10
2016,08,10,12,59,22.00
2016,08,10,13,00,21.90
2016,08,10,13,01,21.90
2016,08,10,13,02,21.90
2016,08,10,13,03,21.90
2016,08,10,13,04,21.90
2016,08,10,13,05,21.90
2016,08,10,13,06,21.90
2016,08,10,13,07,21.90
2016,08,10,13,08,21.90
2016,08,10,13,09,22.00
2016,08,10,13,10,22.00
2016,08,10,13,11,22.10
2016,08,10,13,12,22.20
2016,08,10,13,13,22.30
2016,08,10,13,14,22.50
2016,08,10,13,15,22.60
2016,08,10,13,16,22.70
2016,08,10,13,17,22.70
2016,08,10,13,18,22.70
2016,08,10,13,19,22.60
2016,08,10,13,20,22.60
2016,08,10,13,21,22.60
2016,08,10,13,22,22.60
2016,08,10,13,23,22.70
2016,08,10,13,24,22.70
2016,08,10,13,25,22.80
2016,08,10,13,26,22.90
2016,08,10,13,27,23.00
2016,08,10,13,28,23.10
2016,08,10,13,29,23.10
2016,08,10,13,30,23.20
2016,08,10,13,31,23.30
2016,08,10,13,32,23.30
2016,08,10,13,33,23.30
2016,08,10,13,34,23.30
2016,08,10,13,35,23.30
2016,08,10,13,36,23.30
2016,08,10,13,37,23.40
2016,08,10,13,38,23.40
2016,08,10,13,39,23.50
2016,08,10,13,40,23.60
2016,08,10,13,41,23.60
2016,08,10,13,42,23.70
2016,08,10,13,43,23.70
2016,08,10,13,44,23.80
2016,08,10,13,45,23.90
2016,08,10,13,46,24.00
2016,08,10,13,47,23.90
2016,08,10,13,48,23.80
2016,08,10,13,49,23.80
2016,08,10,13,50,23.80
2016,08,10,13,51,23.80
2016,08,10,13,52,23.80
2016,08,10,13,53,23.90
2016,08,10,13,54,23.90
2016,08,10,13,55,24.00
2016,08,10,13,56,24.00
2016,08,10,13,57,23.90
2016,08,10,13,58,23.90
2016,08,10,13,59,23.80
2016,08,10,14,00,23.80
2016,08,10,14,01,23.70
2016,08,10,14,02,23.70
2016,08,10,14,03,23.60
2016,08,10,14,04,23.50
2016,08,10,14,05,23.50
2016,08,10,14,06,23.50
2016,08,10,14,07,23.50
2016,08,10,14,08,23.50
2016,08,10,14,09,23.50
2016,08,10,14,10,23.60
2016,08,10,14,11,23.60
2016,08,10,14,12,23.60
2016,08,10,14,13,23.60
2016,08,10,14,14,23.50
2016,08,10,14,15,23.40
2016,08,10,14,16,23.30
2016,08,10,14,17,23.20
2016,08,10,14,18,23.10
2016,08,10,14,19,23.20
2016,08,10,14,20,23.20
2016,08,10,14,21,23.10
2016,08,10,14,22,23.20
2016,08,10,14,23,23.20
2016,08,10,14,24,23.30
2016,08,10,14,25,23.40
2016,08,10,14,26,23.40
2016,08,10,14,27,23.50
2016,08,10,14,28,23.50
2016,08,10,14,29,23.40
2016,08,10,14,30,23.30
2016,08,10,14,31,23.30
2016,08,10,14,32,23.40
2016,08,10,14,33,23.50
2016,08,10,14,34,23.60
2016,08,10,14,35,23.70
2016,08,10,14,36,23.80
2016,08,10,14,37,23.80
2016,08,10,14,38,23.90
2016,08,10,14,39,23.90
2016,08,10,14,40,23.90
2016,08,10,14,41,23.90
2016,08,10,14,42,23.90
2016,08,10,14,43,23.90
2016,08,10,14,44,24.00
2016,08,10,14,45,23.90
2016,08,10,14,46,23.80
2016,08,10,14,47,23.80
2016,08,10,14,48,23.70
2016,08,10,14,49,23.70
2016,08,10,14,50,23.80
2016,08,10,14,51,23.80
2016,08,10,14,52,23.90
2016,08,10,14,53,23.90
2016,08,10,14,54,23.80
2016,08,10,14,55,23.80
2016,08,10,14,56,23.80
2016,08,10,14,57,23.80
2016,08,10,14,58,23.80
2016,08,10,14,59,23.80
2016,08,10,15,00,23.90
2016,08,10,15,01,23.90
2016,08,10,15,02,24.00
2016,08,10,15,03,24.00
2016,08,10,15,04,24.10
2016,08,10,15,05,24.20
2016,08,10,15,06,24.20
2016,08,10,15,07,24.30
2016,08,10,15,08,24.30
2016,08,10,15,09,24.30
2016,08,10,15,10,24.30
2016,08,10,15,11,24.30
2016,08,10,15,12,24.30
2016,08,10,15,13,24.30
2016,08,10,15,14,24.30
2016,08,10,15,15,24.30
2016,08,10,15,16,24.30
2016,08,10,15,17,24.20
2016,08,10,15,18,24.10
2016,08,10,15,19,24.10
2016,08,10,15,20,24.10
2016,08,10,15,21,24.20
2016,08,10,15,22,24.20
2016,08,10,15,23,24.30
2016,08,10,15,24,24.30
2016,08,10,15,25,24.30
2016,08,10,15,26,24.30
2016,08,10,15,27,24.20
2016,08,10,15,28,24.20
2016,08,10,15,29,24.20
2016,08,10,15,30,24.20
2016,08,10,15,31,24.20
2016,08,10,15,32,24.30
2016,08,10,15,33,24.30
2016,08,10,15,34,24.30
2016,08,10,15,35,24.30
2016,08,10,15,36,24.30
2016,08,10,15,37,24.30
2016,08,10,15,38,24.30
2016,08,10,15,39,24.30
2016,08,10,15,40,24.20
2016,08,10,15,41,24.20
2016,08,10,15,42,24.20
2016,08,10,15,43,24.20
2016,08,10,15,44,24.20
2016,08,10,15,45,24.30
2016,08,10,15,46,24.30
2016,08,10,15,47,24.40
2016,08,10,15,48,24.40
2016,08,10,15,49,24.50
2016,08,10,15,50,24.60
2016,08,10,15,51,24.60
2016,08,10,15,52,24.60
2016,08,10,15,53,24.60
2016,08,10,15,54,24.50
2016,08,10,15,55,24.40
2016,08,10,15,56,24.20
2016,08,10,15,57,24.10
2016,08,10,15,58,24.10
2016,08,10,15,59,24.00
2016,08,10,16,00,24.00
2016,08,10,16,01,24.00
2016,08,10,16,02,24.00
2016,08,10,16,03,23.90
2016,08,10,16,04,24.00
2016,08,10,16,05,24.00
2016,08,10,16,06,24.10
2016,08,10,16,07,24.10
2016,08,10,16,08,24.00
2016,08,10,16,09,24.10
2016,08,10,16,10,24.10
2016,08,10,16,11,24.10
2016,08,10,16,12,24.10
2016,08,10,16,13,24.10
2016,08,10,16,14,24.10
2016,08,10,16,15,24.00
2016,08,10,16,16,24.00
2016,08,10,16,17,24.10
2016,08,10,16,18,24.10
2016,08,10,16,19,24.10
2016,08,10,16,20,24.10
2016,08,10,16,21,24.10
2016,08,10,16,22,24.20
2016,08,10,16,23,24.20
2016,08,10,16,24,24.30
2016,08,10,16,25,24.30
2016,08,10,16,26,24.30
2016,08,10,16,27,24.30
2016,08,10,16,28,24.30
2016,08,10,16,29,24.30
2016,08,10,16,30,24.30
2016,08,10,16,31,24.30
2016,08,10,16,32,24.20
2016,08,10,16,33,24.20
2016,08,10,16,34,24.20
2016,08,10,16,35,24.20
2016,08,10,16,36,24.20
2016,08,10,16,37,24.10
2016,08,10,16,38,24.10
2016,08,10,16,39,24.10
2016,08,10,16,40,24.10
2016,08,10,16,41,24.10
2016,08,10,16,42,24.10
2016,08,10,16,43,24.10
2016,08,10,16,44,24.10
2016,08,10,16,45,24.10
2016,08,10,16,46,24.20
2016,08,10,16,47,24.10
2016,08,10,16,48,24.00
2016,08,10,16,49,24.00
2016,08,10,16,50,24.00
2016,08,10,16,51,23.90
2016,08,10,16,52,23.90
2016,08,10,16,53,23.90
2016,08,10,16,54,24.00
2016,08,10,16,55,24.00
2016,08,10,16,56,24.10
2016,08,10,16,57,24.10
2016,08,10,16,58,24.20
2016,08,10,16,59,24.20
2016,08,10,17,00,24.20
2016,08,10,17,01,24.20
2016,08,10,17,02,24.10
2016,08,10,17,03,24.00
2016,08,10,17,04,24.00
2016,08,10,17,05,24.00
2016,08,10,17,06,24.10
2016,08,10,17,07,24.10
2016,08,10,17,08,24.10
2016,08,10,17,09,24.10
2016,08,10,17,10,24.10
2016,08,10,17,11,24.10
2016,08,10,17,12,24.10
2016,08,10,17,13,24.10
2016,08,10,17,14,24.00
2016,08,10,17,15,24.00
2016,08,10,17,16,23.90
2016,08,10,17,17,23.90
2016,08,10,17,18,23.80
2016,08,10,17,19,23.80
2016,08,10,17,20,23.80